[[{"header":{"parameterUnit":"m.s-1","parameterCategory":1,"la1":30.2991,"la2":30.254,"lo1":-89.0895,"lo2":-89.0444,"dy":0.0017,"dx":0.0017,"nx":28,"ny":28,"refTime":"2024-03-04T09:00:00:Z","depth":0,"parameterNumber":2,"parameterNumberName":"U-component_of_WINDS"},"data":[0,0,0,0,0,0,0,0,0,0,0,0,0,0,0,0,0,0,0,0,0,0,0,0,0,0,0,0,0,0,0,0,0,0,0,0,0,0,0,0,0,0,0,0,0,0,0,0,0,0,0,0,0,0,0,0,0,0,3.8655,3.8657,0,3.8855,3.8857,3.886,3.8879,3.8877,3.8875,3.8873,3.908,3.9087,3.9095,0,0,0,0,0,0,0,0,0,0,0,0,0,3.829,3.8297,3.8654,3.8657,3.8659,3.8855,3.8858,3.886,3.8879,3.8877,3.8874,3.8872,3.9078,3.9086,3.9095,0,0,0,0,0,0,0,0,0,0,0,0,0,3.8466,3.8299,3.8654,3.8692,3.8698,3.8854,3.8858,3.8861,3.888,3.8877,3.8874,3.8871,3.9075,3.9085,3.9097,3.9229,0,0,3.9131,3.9136,0,0,0,0,0,0,0,0,3.8456,3.8479,3.8684,3.869,3.8696,3.8839,3.8805,3.8984,3.8881,3.8811,3.8873,3.8869,3.9002,3.9019,3.9064,3.9239,3.9247,3.9132,3.9139,3.9143,3.9147,0,0,0,0,0,0,0,3.8443,3.847,3.8734,3.8687,3.8695,3.8701,3.8722,3.8839,3.8922,3.8817,3.8819,3.8842,3.9005,3.9053,3.9069,3.9251,3.9131,3.9141,3.9148,3.9153,3.9546,3.9549,0,0,0,0,0,0,3.8424,3.846,3.8727,3.874,3.8566,3.871,3.8734,3.8796,3.8921,3.8937,3.8844,3.8842,3.9035,3.9056,3.9076,3.924,3.9143,3.9154,3.916,3.9542,3.9547,3.9551,0,0,0,0,0,0,3.8416,3.8447,3.8719,3.8601,3.8636,3.8719,3.879,3.8802,3.885,3.8942,3.8957,3.8878,3.9034,3.9061,3.9191,3.9248,3.9159,3.9169,3.9538,3.9544,3.9549,3.9568,0,0,0,0,0,0,3.8405,3.8444,3.8495,3.8602,3.8642,3.883,3.8793,3.8808,3.8869,3.8868,3.8977,3.8992,3.9033,3.9174,3.9202,3.9261,3.9178,3.9533,3.954,3.9547,3.9563,3.9574,3.9583,0,0,0,0,0,3.8392,3.8492,3.8497,3.8529,3.8706,3.8833,3.8856,3.8901,3.8873,3.8925,3.8985,3.8989,3.9237,3.9187,3.9219,3.9283,3.953,3.9538,3.9546,3.9558,3.9572,3.9583,0,0,0,0,0,0,3.839,3.8507,3.8513,3.8651,3.8732,3.8836,3.8902,3.8913,3.9004,3.8999,3.9052,3.9076,3.9205,3.9257,3.92,3.9418,3.9381,3.9396,3.9379,3.9393,3.9402,3.9387,3.9187,0,0,0,0,0,3.8405,3.8497,3.8595,3.8707,3.8747,3.8818,3.8875,3.8903,3.8989,3.9023,3.9092,3.9176,3.9273,3.9336,3.943,3.9571,3.9596,3.9631,3.9641,3.9649,3.9661,3.974,3.9757,3.9578,3.9578,3.9578,0,0,3.8438,3.8513,3.8568,3.8709,3.8774,3.887,3.8847,3.8948,3.902,3.9039,3.9166,3.922,3.9317,3.9454,3.9517,3.9501,3.9716,3.9659,3.9665,3.9673,3.9751,3.9768,3.9783,3.9584,3.9583,3.9582,0,0,3.8546,3.8612,3.8713,3.878,3.888,3.8927,3.8951,3.9055,3.9091,3.922,3.9237,3.9323,3.9489,3.9558,3.9615,3.9752,3.976,3.9782,3.9834,3.9911,3.9925,3.9938,3.9987,4.0004,3.9794,3.9794,3.9794,0,3.8574,3.8717,3.8764,3.8865,3.8927,3.8949,3.9052,3.9115,3.9242,3.9284,3.9264,3.9474,3.9541,3.9695,3.9728,3.9773,3.9804,3.9769,3.9919,3.9932,3.9945,3.9993,4.0011,3.9796,3.9795,3.9795,3.9795,0,3.8747,3.8847,3.8917,3.9038,3.9108,3.921,3.9272,3.9338,3.936,3.9409,3.9541,3.9623,3.9735,3.9773,3.9796,3.9931,3.9918,3.9908,3.9871,3.9963,4.0009,4.0027,3.9798,3.9798,3.9797,3.9797,0,0,3.8857,3.9004,3.9029,3.9085,3.9199,3.9277,3.9381,3.949,3.9545,3.9633,3.9721,3.9862,3.9855,3.9919,3.995,4.0018,4.0122,4.0,4.0003,4.002,4.0277,4.0283,4.0303,4.0129,4.0132,4.0135,4.0268,0,3.8978,3.9163,3.9208,3.9366,3.946,3.9483,3.9574,3.9654,3.9703,3.9791,3.9846,3.9945,3.9927,3.9966,4.0034,4.0095,4.0174,4.0086,4.0212,4.0216,4.0186,4.0327,4.0333,4.0455,4.0287,4.029,4.0292,0,3.9143,3.9234,3.9401,3.9504,3.9545,3.9625,3.973,3.9813,3.9905,3.9936,4.0009,4.0034,4.0145,4.0103,4.0257,4.0196,4.0251,4.0289,4.0294,4.0307,4.0258,4.0343,4.0495,4.0512,4.032,4.0318,4.0316,0,3.9207,3.9371,3.9492,3.954,3.9663,3.9719,3.9773,3.9862,3.9925,4.0017,4.0059,4.0163,4.022,4.03,4.0353,4.0318,4.0503,4.0465,4.0532,4.0531,4.0569,4.0565,4.0731,4.0605,4.0605,4.0605,4.0604,0,3.9336,3.9437,3.9523,3.9597,3.9712,3.9765,3.9877,3.9932,4.0012,4.0098,4.0126,4.0206,4.0272,4.0362,4.0404,4.0525,4.0551,4.058,4.059,4.0577,4.0573,4.0613,4.0605,4.061,4.0609,4.0608,4.0607,0,3.9426,3.9487,3.9621,3.9727,3.9756,3.9836,3.9927,4.0001,4.0052,4.0162,4.019,4.0271,4.0379,4.044,4.0575,4.0604,4.0739,4.0745,4.0707,4.0711,4.0775,4.0768,4.097,4.1,4.0855,4.0856,4.0858,0,3.9504,3.9582,3.9697,3.9757,3.9812,3.9908,3.9973,4.0029,4.0096,4.0208,4.0269,4.0378,4.0468,4.064,4.0711,4.0815,4.0824,4.0888,4.0839,4.0824,4.0824,4.0818,4.0827,4.0895,4.0897,4.0898,4.0899,0,3.9636,3.9663,3.9755,3.9859,3.9936,4.002,4.0104,4.0152,4.0222,4.0296,4.0406,4.0476,4.0616,4.0724,4.0835,4.0892,4.0907,4.0914,4.0935,4.0922,4.0896,4.0911,4.0729,4.0908,4.0907,4.0907,4.0906,4.0906,3.9722,3.9793,3.9885,3.9988,4.0057,4.0136,4.0211,4.0272,4.0364,4.0481,4.051,4.0626,4.0718,4.0868,4.0928,4.1021,4.1009,4.104,4.1047,4.1054,4.1056,4.0883,4.1042,4.1041,4.1041,4.1041,4.1041,0,3.9855,3.9916,4.001,4.0127,4.0208,4.0216,4.031,4.0377,4.0479,4.0564,4.0653,4.078,4.0887,4.0967,4.1075,4.1134,4.1144,4.1161,4.1157,4.117,4.106,4.1031,4.1151,4.1151,4.1151,4.1151,4.1151,4.1151,3.9934,4.0055,4.0093,4.025,4.0311,4.0425,4.0478,4.0551,4.0618,4.076,4.0848,4.0899,4.0983,4.1098,4.1197,4.1218,4.1256,4.1272,4.1294,4.1189,4.1177,4.1166,4.1139,4.128,4.128,4.1396,4.1397,4.1397]},{"header":{"parameterUnit":"m.s-1","parameterCategory":1,"la1":30.2991,"la2":30.254,"lo1":-89.0895,"lo2":-89.0444,"dy":0.0017,"dx":0.0017,"nx":28,"ny":28,"refTime":"2024-03-04T09:00:00:Z","depth":0,"parameterNumber":3,"parameterNumberName":"V-component_of_WINDS"},"data":[0,0,0,0,0,0,0,0,0,0,0,0,0,0,0,0,0,0,0,0,0,0,0,0,0,0,0,0,0,0,0,0,0,0,0,0,0,0,0,0,0,0,0,0,0,0,0,0,0,0,0,0,0,0,0,0,0,0,0.8235,0.8236,0,0.8253,0.8253,0.8253,0.8275,0.8276,0.8276,0.8276,0.8293,0.8293,0.8293,0,0,0,0,0,0,0,0,0,0,0,0,0,0.822,0.822,0.8235,0.8236,0.8236,0.8253,0.8253,0.8253,0.8275,0.8276,0.8276,0.8276,0.8293,0.8293,0.8293,0,0,0,0,0,0,0,0,0,0,0,0,0,0.8231,0.822,0.8235,0.8249,0.825,0.8253,0.8253,0.8253,0.8275,0.8276,0.8276,0.8277,0.8293,0.8293,0.8293,0.8283,0,0,0.8294,0.8294,0,0,0,0,0,0,0,0,0.823,0.8231,0.8247,0.8248,0.825,0.8262,0.8254,0.8263,0.8275,0.8266,0.8276,0.8277,0.8282,0.8283,0.8285,0.8284,0.8285,0.8294,0.8294,0.8294,0.8294,0,0,0,0,0,0,0,0.8229,0.8231,0.8242,0.8247,0.8249,0.8254,0.8256,0.8255,0.8271,0.8266,0.8268,0.827,0.8283,0.8285,0.8286,0.8285,0.8294,0.8294,0.8294,0.8294,0.8276,0.8275,0,0,0,0,0,0,0.8227,0.823,0.8242,0.8243,0.8241,0.8253,0.8256,0.8258,0.8271,0.8273,0.8269,0.8271,0.8285,0.8286,0.8286,0.8276,0.8294,0.8294,0.8294,0.8276,0.8276,0.8275,0,0,0,0,0,0,0.8226,0.8228,0.8241,0.8237,0.8239,0.8253,0.8255,0.8258,0.826,0.8273,0.8276,0.8269,0.8285,0.8286,0.8284,0.8276,0.8294,0.8294,0.8277,0.8276,0.8275,0.8254,0,0,0,0,0,0,0.8226,0.8227,0.8224,0.8237,0.8239,0.8239,0.8255,0.8258,0.826,0.8262,0.8273,0.8275,0.8286,0.8283,0.8284,0.8277,0.8294,0.8278,0.8277,0.8276,0.8255,0.8252,0.825,0,0,0,0,0,0.8225,0.8217,0.8224,0.8225,0.8236,0.8238,0.8239,0.8252,0.8259,0.8256,0.8264,0.8275,0.8277,0.8283,0.8284,0.8277,0.8278,0.8277,0.8276,0.8256,0.8253,0.825,0,0,0,0,0,0,0.8204,0.8219,0.8227,0.8223,0.8229,0.8242,0.8238,0.8247,0.8251,0.8253,0.8267,0.827,0.8265,0.8271,0.8277,0.8268,0.8279,0.8278,0.8264,0.8261,0.8258,0.8257,0.8294,0,0,0,0,0,0.8199,0.82,0.8213,0.8208,0.8211,0.8224,0.8225,0.8234,0.8241,0.8244,0.8252,0.8258,0.826,0.8261,0.8263,0.8256,0.8258,0.8251,0.8249,0.8246,0.8245,0.8241,0.8238,0.8271,0.8271,0.8271,0,0,0.8188,0.8197,0.8196,0.8204,0.821,0.821,0.8226,0.8226,0.8226,0.8244,0.8242,0.8248,0.8255,0.825,0.8248,0.8255,0.8236,0.8245,0.8243,0.8243,0.8239,0.8236,0.8233,0.827,0.827,0.827,0,0,0.8169,0.8175,0.8172,0.8177,0.8186,0.8194,0.8193,0.8205,0.8209,0.8208,0.8221,0.8221,0.8224,0.8228,0.8231,0.8212,0.8222,0.8213,0.8199,0.8194,0.8192,0.819,0.8183,0.818,0.8212,0.8211,0.8211,0,0.8154,0.8156,0.8169,0.8168,0.8171,0.8186,0.8182,0.8187,0.8196,0.8197,0.8204,0.8207,0.8214,0.821,0.8205,0.8207,0.8206,0.8212,0.8191,0.8189,0.8187,0.8181,0.8178,0.821,0.821,0.8211,0.8211,0,0.8137,0.8138,0.8134,0.8142,0.8145,0.8142,0.8154,0.8155,0.8163,0.817,0.8168,0.8176,0.818,0.818,0.8188,0.8176,0.818,0.8189,0.8201,0.8183,0.8177,0.8174,0.8209,0.8209,0.8209,0.821,0,0,0.8106,0.8121,0.8119,0.8123,0.8133,0.8133,0.8131,0.8135,0.8135,0.814,0.8138,0.814,0.8148,0.8151,0.816,0.8156,0.814,0.8165,0.8166,0.816,0.8128,0.8121,0.8118,0.8147,0.8146,0.8146,0.8127,0,0.8089,0.8086,0.8097,0.8092,0.8092,0.8106,0.8104,0.811,0.8117,0.8117,0.8125,0.8126,0.8136,0.8138,0.8135,0.8143,0.8134,0.8144,0.8144,0.8144,0.8142,0.8115,0.8108,0.809,0.8125,0.8124,0.8124,0,0.8068,0.8072,0.8067,0.8076,0.8077,0.8075,0.8079,0.808,0.8086,0.8091,0.8094,0.8104,0.8101,0.8113,0.811,0.8116,0.8117,0.8121,0.812,0.8121,0.8133,0.8114,0.8084,0.8082,0.8121,0.8121,0.8121,0,0.8045,0.8049,0.8046,0.8049,0.806,0.8058,0.8063,0.807,0.8071,0.8074,0.8075,0.8078,0.808,0.8082,0.8092,0.8099,0.8087,0.81,0.8091,0.8091,0.8088,0.8088,0.8057,0.8088,0.8088,0.8088,0.8089,0,0.8025,0.8021,0.8036,0.8034,0.803,0.8042,0.8037,0.8043,0.8049,0.8048,0.806,0.8059,0.8073,0.8072,0.808,0.8076,0.8077,0.808,0.8082,0.8079,0.8079,0.808,0.8081,0.8088,0.8088,0.8088,0.8088,0,0.7999,0.8009,0.8007,0.8017,0.802,0.8016,0.8025,0.8023,0.803,0.8029,0.8029,0.804,0.8041,0.8051,0.8054,0.8059,0.8051,0.8056,0.8049,0.8051,0.8041,0.8042,0.801,0.8007,0.804,0.804,0.8039,0,0.7985,0.7982,0.7992,0.7993,0.7997,0.7997,0.7998,0.801,0.8011,0.8017,0.8015,0.8016,0.8018,0.8018,0.8026,0.8028,0.8033,0.8022,0.8033,0.803,0.8032,0.8032,0.8032,0.8019,0.8019,0.8018,0.8018,0,0.796,0.7964,0.7966,0.797,0.7971,0.7974,0.7978,0.7977,0.799,0.799,0.7991,0.7992,0.7995,0.7996,0.7999,0.8003,0.8013,0.8014,0.8012,0.8009,0.8005,0.8007,0.8042,0.8015,0.8015,0.8016,0.8016,0.8016,0.7939,0.7937,0.7944,0.7945,0.7949,0.7952,0.7951,0.7957,0.7958,0.7962,0.7968,0.7968,0.7973,0.7978,0.7981,0.7981,0.7987,0.7984,0.7983,0.7982,0.798,0.8005,0.7982,0.7982,0.7982,0.7982,0.7982,0,0.7914,0.7919,0.792,0.7925,0.7925,0.7934,0.7938,0.7938,0.7938,0.7942,0.7944,0.7944,0.7945,0.7953,0.7954,0.7952,0.7956,0.7952,0.7953,0.7953,0.7975,0.7977,0.7949,0.7949,0.7949,0.7949,0.7949,0.7949,0.7901,0.7898,0.7903,0.7901,0.7906,0.7906,0.7908,0.791,0.7914,0.7914,0.7914,0.792,0.7925,0.7927,0.7928,0.793,0.793,0.7924,0.7928,0.7949,0.7952,0.7955,0.7956,0.7924,0.7924,0.7906,0.7906,0.7906]}]]